Hourly Weather Alhos Vedros

Today, 25 February, Thursday

Time Temperature Precipitation Wind Pressure Humidity
00:00 +12°C° 0.7 mm 3 mps 768 mmHg 93%
01:00 +12°C° 0.7 mm 3 mps 768 mmHg 92%
02:00 +12°C° 0.7 mm 3 mps 768 mmHg 92%
03:00 +12°C° 0.8 mm 3 mps 768 mmHg 92%
04:00 +12°C° 0.8 mm 3 mps 768 mmHg 92%
05:00 +11°C° 0.8 mm 3 mps 768 mmHg 91%
06:00 +11°C° 0.1 mm 3 mps 768 mmHg 90%
07:00 +12°C° 0.1 mm 3 mps 768 mmHg 89%
08:00 +12°C° 0.1 mm 3 mps 769 mmHg 88%
09:00 +12°C° 0.4 mm 4 mps 769 mmHg 85%
10:00 +13°C° 0.4 mm 4 mps 769 mmHg 82%
11:00 +13°C° 0.4 mm 5 mps 769 mmHg 78%
12:00 +14°C° 0.3 mm 5 mps 769 mmHg 77%
13:00 +14°C° 0.3 mm 5 mps 768 mmHg 76%
14:00 +14°C° 0.3 mm 5 mps 768 mmHg 74%
15:00 +13°C° 0.3 mm 5 mps 768 mmHg 79%
16:00 +13°C° 0.3 mm 5 mps 768 mmHg 83%
17:00 +12°C° 0.3 mm 4 mps 768 mmHg 87%
18:00 +12°C° 0.3 mm 4 mps 768 mmHg 88%
19:00 +12°C° 0.3 mm 4 mps 768 mmHg 89%
20:00 +11°C° 0.3 mm 4 mps 769 mmHg 89%
21:00 +11°C° 0.4 mm 4 mps 768 mmHg 90%
22:00 +11°C° 0.4 mm 4 mps 768 mmHg 91%
23:00 +11°C° 0.4 mm 4 mps 768 mmHg 91%

Tomorrow, 26 February, Friday

Time Temperature Precipitation Wind Pressure Humidity
00:00 +11°C° 0.3 mm 4 mps 768 mmHg 91%
01:00 +10°C° 0.3 mm 4 mps 768 mmHg 92%
02:00 +10°C° 0.3 mm 3 mps 768 mmHg 92%
03:00 +10°C° 0 mm 3 mps 768 mmHg 92%
04:00 +10°C° 0 mm 3 mps 768 mmHg 92%
05:00 +10°C° 0 mm 3 mps 768 mmHg 92%
06:00 +11°C° 0 mm 3 mps 768 mmHg 90%
07:00 +11°C° 0 mm 3 mps 769 mmHg 88%
08:00 +12°C° 0 mm 3 mps 769 mmHg 86%
09:00 +14°C° 0 mm 3 mps 769 mmHg 81%
10:00 +16°C° 0 mm 3 mps 769 mmHg 75%
11:00 +18°C° 0 mm 3 mps 769 mmHg 69%
12:00 +18°C° 0 mm 3 mps 769 mmHg 68%
13:00 +18°C° 0 mm 3 mps 769 mmHg 67%
14:00 +19°C° 0 mm 2 mps 769 mmHg 65%
15:00 +18°C° 0 mm 2 mps 769 mmHg 69%
16:00 +18°C° 0 mm 2 mps 769 mmHg 72%
17:00 +17°C° 0 mm 2 mps 769 mmHg 75%
18:00 +16°C° 0 mm 2 mps 769 mmHg 78%
19:00 +14°C° 0 mm 3 mps 769 mmHg 80%
20:00 +13°C° 0 mm 3 mps 769 mmHg 82%
21:00 +13°C° 0 mm 3 mps 769 mmHg 82%
22:00 +13°C° 0 mm 3 mps 769 mmHg 83%
23:00 +12°C° 0 mm 3 mps 769 mmHg 83%

Day after tomorrow, 27 February, Saturday

Time Temperature Precipitation Wind Pressure Humidity
00:00 +12°C° 0 mm 3 mps 769 mmHg 84%
01:00 +12°C° 0 mm 3 mps 768 mmHg 84%
02:00 +12°C° 0 mm 3 mps 768 mmHg 85%
03:00 +12°C° 0 mm 3 mps 768 mmHg 84%
04:00 +11°C° 0 mm 3 mps 768 mmHg 83%
05:00 +11°C° 0 mm 3 mps 767 mmHg 82%
06:00 +12°C° 0 mm 4 mps 768 mmHg 79%
07:00 +12°C° 0 mm 4 mps 768 mmHg 76%
08:00 +13°C° 0 mm 4 mps 768 mmHg 73%
09:00 +15°C° 0 mm 4 mps 768 mmHg 69%
10:00 +17°C° 0 mm 4 mps 768 mmHg 66%
11:00 +18°C° 0 mm 3 mps 767 mmHg 62%
12:00 +19°C° 0 mm 3 mps 767 mmHg 61%
13:00 +19°C° 0 mm 3 mps 766 mmHg 60%
14:00 +20°C° 0 mm 3 mps 766 mmHg 60%
15:00 +19°C° 0 mm 3 mps 766 mmHg 64%
16:00 +18°C° 0 mm 3 mps 765 mmHg 68%
17:00 +17°C° 0 mm 3 mps 765 mmHg 71%
18:00 +16°C° 0 mm 3 mps 765 mmHg 73%
19:00 +14°C° 0 mm 3 mps 766 mmHg 75%
20:00 +14°C° 0 mm 2 mps 766 mmHg 77%
21:00 +14°C° 0 mm 2 mps 765 mmHg 78%
22:00 +13°C° 0 mm 2 mps 765 mmHg 79%
23:00 +13°C° 0 mm 2 mps 765 mmHg 80%

28 February, Sunday

Time Temperature Precipitation Wind Pressure Humidity
00:00 +12°C° 0 mm 3 mps 765 mmHg 81%
01:00 +11°C° 0 mm 3 mps 764 mmHg 82%
02:00 +11°C° 0 mm 3 mps 764 mmHg 83%
03:00 +10°C° 0 mm 3 mps 764 mmHg 83%
04:00 +10°C° 0 mm 3 mps 764 mmHg 83%
05:00 +10°C° 0 mm 3 mps 763 mmHg 83%
06:00 +10°C° 0 mm 3 mps 763 mmHg 81%
07:00 +11°C° 0 mm 3 mps 764 mmHg 79%
08:00 +11°C° 0 mm 3 mps 764 mmHg 77%
09:00 +13°C° 0 mm 3 mps 764 mmHg 74%
10:00 +16°C° 0 mm 2 mps 764 mmHg 71%
11:00 +17°C° 0 mm 2 mps 764 mmHg 68%
12:00 +18°C° 0 mm 2 mps 763 mmHg 64%
13:00 +19°C° 0 mm 2 mps 763 mmHg 60%
14:00 +20°C° 0 mm 2 mps 762 mmHg 57%
15:00 +19°C° 0 mm 2 mps 762 mmHg 61%
16:00 +18°C° 0 mm 2 mps 762 mmHg 66%
17:00 +18°C° 0 mm 1 mps 762 mmHg 70%
18:00 +16°C° 0.1 mm 2 mps 763 mmHg 74%
19:00 +15°C° 0.1 mm 2 mps 763 mmHg 77%
20:00 +14°C° 0.1 mm 2 mps 763 mmHg 81%
21:00 +13°C° 0.1 mm 2 mps 763 mmHg 83%
22:00 +13°C° 0.1 mm 2 mps 763 mmHg 84%
23:00 +12°C° 0.1 mm 2 mps 763 mmHg 86%

1 March, Monday

Time Temperature Precipitation Wind Pressure Humidity
00:00 +12°C° 0 mm 2 mps 763 mmHg 87%
01:00 +12°C° 0 mm 2 mps 763 mmHg 89%
02:00 +10°C° 0 mm 2 mps 762 mmHg 90%
03:00 +10°C° 0 mm 2 mps 762 mmHg 91%
04:00 +10°C° 0 mm 2 mps 762 mmHg 91%
05:00 +10°C° 0 mm 2 mps 763 mmHg 91%
06:00 +12°C° 0 mm 2 mps 763 mmHg 89%
07:00 +12°C° 0 mm 2 mps 763 mmHg 86%
08:00 +13°C° 0 mm 2 mps 763 mmHg 84%
09:00 +15°C° 0 mm 2 mps 763 mmHg 78%
10:00 +16°C° 0 mm 2 mps 764 mmHg 71%
11:00 +18°C° 0 mm 2 mps 764 mmHg 65%
12:00 +19°C° 0 mm 1 mps 764 mmHg 62%
13:00 +20°C° 0 mm 1 mps 763 mmHg 58%
14:00 +21°C° 0 mm 1 mps 763 mmHg 55%
15:00 +20°C° 0.1 mm 1 mps 763 mmHg 61%
16:00 +19°C° 0.1 mm 1 mps 764 mmHg 67%
17:00 +17°C° 0.1 mm 2 mps 764 mmHg 73%
18:00 +16°C° 0 mm 2 mps 764 mmHg 77%
19:00 +15°C° 0 mm 2 mps 765 mmHg 80%
20:00 +13°C° 0 mm 2 mps 765 mmHg 83%
21:00 +13°C° 0 mm 2 mps 766 mmHg 84%
22:00 +13°C° 0 mm 2 mps 766 mmHg 85%
23:00 +12°C° 0 mm 2 mps 766 mmHg 86%

2 March, Tuesday

Time Temperature Precipitation Wind Pressure Humidity
00:00 +12°C° 0 mm 2 mps 766 mmHg 87%
01:00 +12°C° 0 mm 2 mps 766 mmHg 87%
02:00 +10°C° 0 mm 2 mps 766 mmHg 87%
03:00 +10°C° 0 mm 2 mps 766 mmHg 88%
04:00 +10°C° 0 mm 2 mps 766 mmHg 88%
05:00 +10°C° 0 mm 2 mps 766 mmHg 89%
06:00 +10°C° 0 mm 2 mps 767 mmHg 86%
07:00 +12°C° 0 mm 2 mps 767 mmHg 83%
08:00 +13°C° 0 mm 2 mps 767 mmHg 80%
09:00 +15°C° 0 mm 2 mps 768 mmHg 74%
10:00 +18°C° 0 mm 1 mps 768 mmHg 69%
11:00 +19°C° 0 mm 1 mps 768 mmHg 64%
12:00 +20°C° 0 mm 1 mps 768 mmHg 62%
13:00 +21°C° 0 mm 1 mps 767 mmHg 59%
14:00 +21°C° 0 mm 1 mps 767 mmHg 57%
15:00 +19°C° 0.1 mm 2 mps 767 mmHg 64%
16:00 +18°C° 0.1 mm 2 mps 767 mmHg 70%
17:00 +16°C° 0.1 mm 2 mps 768 mmHg 76%
18:00 +16°C° 0 mm 2 mps 768 mmHg 78%
19:00 +15°C° 0 mm 2 mps 768 mmHg 81%
20:00 +14°C° 0 mm 2 mps 769 mmHg 83%
21:00 +14°C° 0 mm 2 mps 769 mmHg 83%
22:00 +13°C° 0 mm 2 mps 769 mmHg 84%
23:00 +13°C° 0 mm 2 mps 769 mmHg 84%
Show more

We Need Your Consent

Meteoprog and our Service Providers may store and access personal data such as cookies, device identifiers or other similar technologies on your device and process such data to personalise content and ads, as well as provide social media features and to analyse the traffic.

  • Store and/or access information on your device

    Cookies, device identifiers or other information can be stored or accessed on your device for the purposes indicated above.

  • Personalised ads and content, ad and content measurement, audience insights, and products development

    Ads and content can be personalised based on a profile. More data can be added to better personalise ads and content. Ad and content performance can be measured. Insights about the audience who saw the ads and content can be derived. Such data can be used to develop or improve user’s experience, systems and software.

By clicking ‘I Agree’ you will allow the use of indicated cookies, device identifiers, web beacons or other similar technologies. Your settings can be changed in the browser on your device.

For certain purposes, legitimate interests may be relied on, rather than consent. You can read more about this in our Privacy and Cookie Policy.